This is the latest recevied weather packets stored in our database for station/object GW4288. If no packets are shown the sender has not sent any weather packets the latest 1 day(s).
| Time | Temp. | Humidity | Pressure | Rain* | Wind** | Luminosity | Snow |
|---|---|---|---|---|---|---|---|
| 1778163194 | 18.33° C | 60% | 1012.6 hPa | 0 mm | - | 108 W/m² | - |
| 1778162937 | 18.33° C | 61% | 1012.6 hPa | 0 mm | - | 108 W/m² | - |
| 1778162900 | 18.33° C | 61% | 1012.7 hPa | 0 mm | - | 104 W/m² | - |
| 1778162697 | 18.33° C | 61% | 1012.5 hPa | 0 mm | - | 105 W/m² | - |
| 1778162576 | 18.33° C | 61% | 1012.5 hPa | 0 mm | - | 108 W/m² | - |
| 1778162478 | 18.33° C | 61% | 1012.6 hPa | 0 mm | - | 102 W/m² | - |
| 1778162337 | 18.33° C | 64% | 1012.5 hPa | 0 mm | - | 90 W/m² | - |
| 1778162216 | 18.33° C | 61% | 1012.6 hPa | 0 mm | - | 85 W/m² | - |
| 1778162097 | 18.33° C | 61% | 1012.5 hPa | 0 mm | - | 90 W/m² | - |
| 1778161977 | 18.33° C | 61% | 1012.4 hPa | 0 mm | - | 100 W/m² | - |
| 1778161865 | 18.33° C | 60% | 1012.5 hPa | 0 mm | - | 108 W/m² | - |
| 1778161737 | 18.33° C | 60% | 1012.6 hPa | 0 mm | - | 114 W/m² | - |
| 1778161617 | 18.33° C | 60% | 1012.6 hPa | 0 mm | - | 109 W/m² | - |
| 1778161496 | 18.33° C | 60% | 1012.6 hPa | 0 mm | - | 105 W/m² | - |
| 1778161376 | 18.33° C | 59% | 1012.5 hPa | 0 mm | - | 115 W/m² | - |
| 1778161267 | 18.89° C | 59% | 1012.8 hPa | 0 mm | - | 131 W/m² | - |
| 1778161136 | 18.89° C | 59% | 1012.7 hPa | 0 mm | - | 151 W/m² | - |
| 1778161017 | 18.33° C | 60% | 1012.4 hPa | 0 mm | - | 175 W/m² | - |
| 1778160958 | 18.33° C | 60% | 1012.6 hPa | 0 mm | - | 173 W/m² | - |
| 1778160808 | 18.33° C | 61% | 1012.5 hPa | 0 mm | - | 159 W/m² | - |
| 1778160793 | 18.33° C | 60% | 1012.5 hPa | 0 mm | - | 156 W/m² | - |
| 1778160537 | 18.89° C | 59% | 1012.5 hPa | 0 mm | - | 155 W/m² | - |
| 1778160416 | 18.33° C | 61% | 1012.4 hPa | 0 mm | - | 137 W/m² | - |
| 1778160296 | 18.89° C | 60% | 1012.5 hPa | 0 mm | - | 124 W/m² | - |
| 1778160176 | 18.89° C | 61% | 1012.6 hPa | 0 mm | - | 134 W/m² | - |
* Rain latest hour (hover to see other rain measurements)
** Current wind speed in m/s (hover to see current wind gust speed)